[[{"header":{"parameterUnit":"m.s-1","parameterCategory":1,"la1":30.2991,"la2":30.254,"lo1":-89.0895,"lo2":-89.0444,"dy":0.0017,"dx":0.0017,"nx":28,"ny":28,"refTime":"2026-02-07T09:00:00:Z","depth":0,"parameterNumber":2,"parameterNumberName":"U-component_of_WINDS"},"data":[0,0,0,0,0,0,0,0,0,0,0,0,0,0,0,0,0,0,0,0,0,0,0,0,0,0,0,0,0,0,0,0,0,0,0,0,0,0,0,0,0,0,0,0,0,0,0,0,0,0,0,0,0,0,0,0,0,0,-1.9719,-1.9719,0,-1.9699,-1.9699,-1.9699,-1.9637,-1.9636,-1.9634,-1.9633,-1.9615,-1.9615,-1.9616,0,0,0,0,0,0,0,0,0,0,0,0,0,-1.9705,-1.9706,-1.9719,-1.9719,-1.9718,-1.9699,-1.9699,-1.9699,-1.9637,-1.9635,-1.9634,-1.9632,-1.9614,-1.9615,-1.9616,0,0,0,0,0,0,0,0,0,0,0,0,0,-1.9701,-1.9706,-1.9719,-1.9685,-1.9682,-1.9699,-1.9699,-1.9699,-1.9637,-1.9635,-1.9633,-1.9631,-1.9614,-1.9615,-1.9616,-1.9665,0,0,-1.962,-1.962,0,0,0,0,0,0,0,0,-1.9701,-1.9701,-1.9691,-1.9688,-1.9684,-1.9668,-1.9687,-1.9688,-1.9638,-1.9655,-1.9633,-1.963,-1.9634,-1.9634,-1.9635,-1.9664,-1.9663,-1.962,-1.9621,-1.9621,-1.9622,0,0,0,0,0,0,0,-1.9702,-1.9702,-1.9711,-1.969,-1.9687,-1.9672,-1.9669,-1.9687,-1.9656,-1.9653,-1.9648,-1.9647,-1.9632,-1.9634,-1.9634,-1.9663,-1.962,-1.9621,-1.9622,-1.9622,-1.9732,-1.9734,0,0,0,0,0,0,-1.9706,-1.9703,-1.9712,-1.9711,-1.9688,-1.9674,-1.9671,-1.9676,-1.9656,-1.9651,-1.9649,-1.9644,-1.9633,-1.9632,-1.9633,-1.9688,-1.9621,-1.9622,-1.9623,-1.9729,-1.9732,-1.9734,0,0,0,0,0,0,-1.9706,-1.9708,-1.9713,-1.9705,-1.9705,-1.9676,-1.9682,-1.9676,-1.9677,-1.9653,-1.9647,-1.9656,-1.9631,-1.9631,-1.9657,-1.9686,-1.9623,-1.9624,-1.9727,-1.973,-1.9733,-1.9799,0,0,0,0,0,0,-1.9706,-1.9708,-1.9726,-1.9706,-1.9705,-1.9737,-1.9684,-1.9677,-1.968,-1.9673,-1.9658,-1.9653,-1.9629,-1.9656,-1.9659,-1.9687,-1.9625,-1.9724,-1.9728,-1.9732,-1.9794,-1.9804,-1.9812,0,0,0,0,0,-1.9706,-1.9746,-1.9727,-1.9728,-1.9727,-1.9739,-1.9738,-1.971,-1.9682,-1.97,-1.9684,-1.9654,-1.9683,-1.9659,-1.9662,-1.9691,-1.9722,-1.9727,-1.9732,-1.979,-1.9802,-1.9812,0,0,0,0,0,0,-1.977,-1.9742,-1.9721,-1.9756,-1.975,-1.9728,-1.975,-1.9724,-1.9726,-1.972,-1.9685,-1.9682,-1.9713,-1.9705,-1.9678,-1.9737,-1.9698,-1.9703,-1.9741,-1.9752,-1.9761,-1.9762,-1.9626,0,0,0,0,0,-1.9788,-1.9799,-1.9775,-1.9808,-1.9806,-1.9779,-1.9783,-1.9761,-1.9754,-1.9751,-1.9737,-1.9732,-1.974,-1.9746,-1.9752,-1.9793,-1.9788,-1.9814,-1.9824,-1.9831,-1.9836,-1.9857,-1.9868,-1.9751,-1.9751,-1.975,0,0,-1.9826,-1.9812,-1.9821,-1.982,-1.9813,-1.9826,-1.9777,-1.9793,-1.9802,-1.9754,-1.9777,-1.9767,-1.9759,-1.9793,-1.9807,-1.9786,-1.9868,-1.9838,-1.9844,-1.9845,-1.9863,-1.9874,-1.9884,-1.9754,-1.9753,-1.9753,0,0,-1.99,-1.9891,-1.9917,-1.9911,-1.9901,-1.9882,-1.9889,-1.9871,-1.9862,-1.9885,-1.9849,-1.986,-1.9875,-1.987,-1.987,-1.9944,-1.9915,-1.9947,-1.9995,-2.0015,-2.0024,-2.0032,-2.0057,-2.0067,-1.9952,-1.9952,-1.9952,0,-1.9948,-1.9965,-1.9934,-1.9952,-1.9952,-1.9909,-1.9935,-1.9931,-1.9924,-1.9926,-1.9903,-1.992,-1.9912,-1.9943,-1.9961,-1.9963,-1.9969,-1.9947,-2.0025,-2.0033,-2.004,-2.0064,-2.0073,-1.9956,-1.9955,-1.9955,-1.9955,0,-2.0024,-2.0037,-2.0059,-2.0052,-2.0055,-2.0078,-2.005,-2.0057,-2.0036,-2.0021,-2.0044,-2.0033,-2.0036,-2.0042,-2.0022,-2.0071,-2.0058,-2.0032,-1.9991,-2.0056,-2.0077,-2.0086,-1.9961,-1.996,-1.9959,-1.9958,0,0,-2.0137,-2.0113,-2.0121,-2.0117,-2.0103,-2.0113,-2.0133,-2.0135,-2.0142,-2.0139,-2.0155,-2.0169,-2.0143,-2.0143,-2.0122,-2.014,-2.0198,-2.0111,-2.011,-2.0126,-2.0251,-2.027,-2.0281,-2.018,-2.0182,-2.0183,-2.0251,0,-2.0206,-2.0238,-2.0211,-2.0249,-2.026,-2.022,-2.0238,-2.0231,-2.0218,-2.0226,-2.0211,-2.0221,-2.0187,-2.0187,-2.0203,-2.0188,-2.0223,-2.0183,-2.0194,-2.0195,-2.0196,-2.0293,-2.0313,-2.0377,-2.0259,-2.0261,-2.0262,0,-2.0291,-2.0291,-2.0329,-2.0313,-2.0316,-2.0333,-2.0332,-2.034,-2.0333,-2.0321,-2.0322,-2.0296,-2.0315,-2.0277,-2.0303,-2.0276,-2.028,-2.0273,-2.0275,-2.0274,-2.0231,-2.0292,-2.0397,-2.0407,-2.0275,-2.0274,-2.0273,0,-2.0368,-2.0378,-2.0402,-2.04,-2.0381,-2.0394,-2.0387,-2.0377,-2.038,-2.038,-2.0381,-2.0384,-2.0386,-2.0389,-2.0365,-2.0339,-2.0394,-2.0354,-2.0384,-2.0385,-2.0396,-2.0395,-2.0502,-2.0402,-2.0401,-2.0401,-2.0401,0,-2.0447,-2.0472,-2.0436,-2.045,-2.0477,-2.0446,-2.0474,-2.0463,-2.0455,-2.0467,-2.0433,-2.0446,-2.0413,-2.0423,-2.0404,-2.0428,-2.0429,-2.0421,-2.0415,-2.0423,-2.0424,-2.0423,-2.0417,-2.0404,-2.0403,-2.0403,-2.0402,0,-2.0537,-2.0514,-2.0537,-2.0517,-2.0513,-2.0534,-2.0517,-2.053,-2.0515,-2.053,-2.0532,-2.0508,-2.0517,-2.0494,-2.0499,-2.0487,-2.0521,-2.0509,-2.0523,-2.0519,-2.055,-2.0547,-2.0659,-2.0671,-2.0565,-2.0566,-2.0567,0,-2.0588,-2.0606,-2.0589,-2.0594,-2.0588,-2.0598,-2.06,-2.0571,-2.0576,-2.0568,-2.0582,-2.0588,-2.0591,-2.0608,-2.0591,-2.0595,-2.0582,-2.0621,-2.0583,-2.0589,-2.0581,-2.058,-2.0581,-2.0629,-2.063,-2.0631,-2.0632,0,-2.0682,-2.0669,-2.0674,-2.0675,-2.0678,-2.0678,-2.0675,-2.0682,-2.0651,-2.0657,-2.0666,-2.0668,-2.0674,-2.068,-2.0681,-2.0674,-2.0648,-2.0644,-2.0651,-2.0658,-2.0665,-2.066,-2.0543,-2.0641,-2.064,-2.064,-2.0639,-2.0639,-2.0753,-2.0766,-2.0756,-2.0762,-2.0757,-2.0755,-2.0766,-2.0752,-2.0758,-2.0759,-2.0742,-2.0754,-2.0747,-2.0744,-2.0741,-2.075,-2.0732,-2.0743,-2.0745,-2.0748,-2.0752,-2.0665,-2.075,-2.075,-2.0749,-2.0749,-2.0749,0,-2.0843,-2.0834,-2.084,-2.0837,-2.0842,-2.0817,-2.0813,-2.0819,-2.0829,-2.0824,-2.0827,-2.0837,-2.0843,-2.0827,-2.0831,-2.0841,-2.083,-2.0843,-2.0841,-2.084,-2.0769,-2.0761,-2.0853,-2.0853,-2.0853,-2.0853,-2.0853,-2.0853,-2.089,-2.0912,-2.0898,-2.0917,-2.0909,-2.0919,-2.0919,-2.0917,-2.0912,-2.0924,-2.0929,-2.0918,-2.0909,-2.0912,-2.0916,-2.0911,-2.0914,-2.0931,-2.0922,-2.0855,-2.0845,-2.0835,-2.0828,-2.0933,-2.0933,-2.0993,-2.0993,-2.0994]},{"header":{"parameterUnit":"m.s-1","parameterCategory":1,"la1":30.2991,"la2":30.254,"lo1":-89.0895,"lo2":-89.0444,"dy":0.0017,"dx":0.0017,"nx":28,"ny":28,"refTime":"2026-02-07T09:00:00:Z","depth":0,"parameterNumber":3,"parameterNumberName":"V-component_of_WINDS"},"data":[0,0,0,0,0,0,0,0,0,0,0,0,0,0,0,0,0,0,0,0,0,0,0,0,0,0,0,0,0,0,0,0,0,0,0,0,0,0,0,0,0,0,0,0,0,0,0,0,0,0,0,0,0,0,0,0,0,0,0.6697,0.6698,0,0.6758,0.6759,0.676,0.6822,0.6823,0.6824,0.6824,0.6886,0.6887,0.6888,0,0,0,0,0,0,0,0,0,0,0,0,0,0.6634,0.6635,0.6697,0.6698,0.6698,0.6758,0.6759,0.676,0.6822,0.6823,0.6824,0.6825,0.6886,0.6887,0.6888,0,0,0,0,0,0,0,0,0,0,0,0,0,0.6675,0.6635,0.6697,0.6737,0.6741,0.6758,0.6759,0.676,0.6821,0.6823,0.6824,0.6825,0.6886,0.6887,0.6888,0.6871,0,0,0.6892,0.6893,0,0,0,0,0,0,0,0,0.6673,0.6677,0.673,0.6734,0.6739,0.6784,0.676,0.6797,0.6821,0.6791,0.6824,0.6826,0.6851,0.6855,0.6864,0.6874,0.6876,0.6892,0.6893,0.6894,0.6894,0,0,0,0,0,0,0,0.667,0.6675,0.6721,0.6731,0.6736,0.6752,0.6759,0.6767,0.6813,0.6794,0.6798,0.6805,0.6854,0.6863,0.6866,0.6877,0.6892,0.6893,0.6894,0.6895,0.6879,0.6878,0,0,0,0,0,0,0.6661,0.6672,0.6719,0.6723,0.6708,0.6752,0.676,0.6768,0.6813,0.6821,0.6804,0.6807,0.686,0.6864,0.6868,0.6853,0.6894,0.6895,0.6895,0.688,0.6878,0.6877,0,0,0,0,0,0,0.6659,0.6665,0.6717,0.6699,0.6707,0.6752,0.676,0.6768,0.6778,0.6821,0.6829,0.6804,0.6861,0.6866,0.687,0.6856,0.6895,0.6896,0.6881,0.6879,0.6878,0.682,0,0,0,0,0,0,0.6657,0.6664,0.6657,0.6698,0.6708,0.6717,0.6759,0.6769,0.678,0.6785,0.6824,0.6831,0.6862,0.6868,0.6872,0.6858,0.6897,0.6883,0.6881,0.6878,0.6824,0.6817,0.6811,0,0,0,0,0,0.6655,0.6638,0.6656,0.6662,0.67,0.6716,0.6722,0.6758,0.6778,0.6772,0.6801,0.683,0.6857,0.6868,0.6873,0.6859,0.6884,0.6881,0.6879,0.6826,0.6818,0.6811,0,0,0,0,0,0,0.6593,0.6644,0.6665,0.6661,0.6684,0.6727,0.6721,0.6748,0.6765,0.677,0.6814,0.6822,0.6821,0.6841,0.6852,0.6846,0.6875,0.6873,0.6833,0.6826,0.6819,0.6815,0.6899,0,0,0,0,0,0.6579,0.6587,0.6631,0.6623,0.6634,0.6675,0.6683,0.671,0.6735,0.6745,0.6774,0.6797,0.6812,0.682,0.6835,0.6827,0.6837,0.682,0.6814,0.6808,0.6806,0.6805,0.6799,0.6868,0.6868,0.6868,0,0,0.6549,0.6578,0.6581,0.6612,0.6633,0.6641,0.6683,0.669,0.6697,0.6746,0.6752,0.6774,0.6804,0.6802,0.6803,0.6818,0.6789,0.6805,0.68,0.6801,0.6802,0.6795,0.6789,0.6866,0.6867,0.6867,0,0,0.6501,0.6523,0.652,0.654,0.6572,0.66,0.6599,0.6638,0.6655,0.6662,0.67,0.6709,0.6732,0.6752,0.6765,0.6726,0.6754,0.673,0.6696,0.6695,0.6689,0.6685,0.6672,0.6667,0.6728,0.6728,0.6727,0,0.646,0.6474,0.6514,0.652,0.6533,0.6579,0.6577,0.6595,0.6629,0.6637,0.6654,0.6686,0.6708,0.6713,0.6704,0.6713,0.6714,0.6726,0.6687,0.6683,0.6679,0.6668,0.6663,0.6724,0.6725,0.6725,0.6725,0,0.6424,0.6433,0.6427,0.646,0.6473,0.6474,0.6515,0.6523,0.6548,0.6575,0.6582,0.6612,0.6634,0.6638,0.6662,0.6646,0.6655,0.6679,0.6708,0.6669,0.6659,0.6655,0.672,0.6721,0.6722,0.6723,0,0,0.6337,0.6394,0.6391,0.6407,0.6447,0.6455,0.6459,0.6482,0.6488,0.6511,0.6516,0.6536,0.6559,0.6574,0.6601,0.66,0.6569,0.6624,0.6626,0.6614,0.6556,0.6538,0.6532,0.6588,0.6588,0.6587,0.6554,0,0.6295,0.6305,0.6342,0.6342,0.6352,0.6397,0.6401,0.6425,0.6451,0.6463,0.6491,0.6505,0.6533,0.6543,0.6544,0.6573,0.6558,0.6576,0.6594,0.6595,0.6586,0.6527,0.6508,0.6474,0.655,0.6549,0.6549,0,0.6248,0.6269,0.6269,0.631,0.6316,0.6318,0.6344,0.6355,0.6385,0.6403,0.6421,0.6452,0.646,0.6488,0.65,0.6511,0.6521,0.6537,0.6536,0.654,0.6569,0.6529,0.6464,0.646,0.6543,0.6543,0.6544,0,0.6186,0.6214,0.6219,0.6231,0.6279,0.628,0.63,0.6331,0.6343,0.6365,0.6374,0.6396,0.6408,0.6425,0.6463,0.6479,0.6471,0.6501,0.6487,0.6486,0.6483,0.6483,0.642,0.6489,0.6489,0.6489,0.6489,0,0.6136,0.6135,0.6192,0.6194,0.6195,0.6238,0.6237,0.6261,0.6289,0.6298,0.6338,0.6345,0.6394,0.6407,0.6436,0.6443,0.6447,0.6463,0.6471,0.646,0.6458,0.6467,0.6471,0.6487,0.6488,0.6488,0.6488,0,0.6067,0.6104,0.6112,0.6157,0.6169,0.6167,0.6206,0.6211,0.6239,0.625,0.6255,0.6299,0.6317,0.6356,0.6384,0.6404,0.6403,0.6417,0.6393,0.6398,0.6383,0.6384,0.6323,0.6318,0.6389,0.6388,0.6388,0,0.6033,0.6033,0.6078,0.6087,0.6106,0.612,0.6133,0.6176,0.6188,0.6223,0.6224,0.6245,0.6264,0.6291,0.6326,0.6348,0.6363,0.6341,0.6367,0.6356,0.6364,0.6364,0.6365,0.6335,0.6334,0.6333,0.6332,0,0.5969,0.5988,0.6005,0.603,0.6044,0.6065,0.6089,0.6094,0.6143,0.6154,0.6174,0.6189,0.6218,0.6239,0.6267,0.6289,0.6319,0.6324,0.6322,0.6311,0.6298,0.6306,0.6378,0.6325,0.6326,0.6326,0.6327,0.6327,0.5917,0.592,0.5953,0.5971,0.5994,0.6015,0.6022,0.6052,0.6069,0.6097,0.6121,0.6138,0.617,0.6211,0.6231,0.6245,0.626,0.6257,0.6256,0.6255,0.6251,0.6295,0.625,0.6251,0.6251,0.6251,0.6251,0,0.5856,0.588,0.5896,0.5928,0.5943,0.5971,0.5999,0.601,0.6024,0.6052,0.607,0.6093,0.6115,0.6152,0.6176,0.6181,0.6196,0.6186,0.6187,0.6191,0.6236,0.6235,0.6174,0.6174,0.6174,0.6174,0.6174,0.6174,0.5826,0.5833,0.5857,0.5876,0.59,0.5918,0.5931,0.5952,0.5974,0.5998,0.6016,0.604,0.6072,0.61,0.6121,0.6131,0.6139,0.6125,0.614,0.6181,0.6188,0.6195,0.6195,0.6126,0.6126,0.6094,0.6094,0.6094]}]]